| time (UTC) | temp C | wind direction | speed KPH | gust KPH | rain 1hr cm | rain 24hr cm | rain mn cm | humidity % | barometer mb |
| 20260507095548 | 11 | 0.0 | 0.0 | 0.00 | 0.00 | 0.00 | 80 | 1023.1 | |
| 20260507094547 | 11 | 0.0 | 0.0 | 0.00 | 0.00 | 0.00 | 80 | 1023.2 | |
| 20260507093545 | 11 | 0.0 | 0.0 | 0.00 | 0.00 | 0.00 | 80 | 1023.2 | |
| 20260507092544 | 11 | 0.0 | 0.0 | 0.00 | 0.00 | 0.00 | 81 | 1023.4 | |
| 20260507091602 | 11 | 0.0 | 0.0 | 0.00 | 0.00 | 0.00 | 80 | 1023.4 | |
| 20260507090541 | 11 | 0.0 | 0.0 | 0.00 | 0.00 | 0.00 | 79 | 1023.4 | |
| 20260507085540 | 11 | 0.0 | 1.6 | 0.00 | 0.00 | 0.00 | 79 | 1023.4 | |
| 20260507084539 | 11 | 0.0 | 0.0 | 0.00 | 0.00 | 0.00 | 80 | 1023.4 | |
| 20260507083537 | 11 | 0.0 | 0.0 | 0.00 | 0.00 | 0.00 | 81 | 1023.5 | |
| 20260507082536 | 11 | 0.0 | 0.0 | 0.00 | 0.00 | 0.00 | 81 | 1023.4 | |
| 20260507081535 | 11 | 0.0 | 0.0 | 0.00 | 0.00 | 0.00 | 80 | 1023.5 | |
| 20260507080534 | 11 | 0.0 | 0.0 | 0.00 | 0.00 | 0.00 | 81 | 1023.4 | |
| 20260507075532 | 11 | 0.0 | 0.0 | 0.00 | 0.00 | 0.00 | 81 | 1023.4 | |
| 20260507074531 | 11 | 0.0 | 0.0 | 0.00 | 0.00 | 0.00 | 81 | 1023.5 | |
| 20260507073529 | 11 | 0.0 | 0.0 | 0.00 | 0.00 | 0.00 | 81 | 1023.6 | |
| 20260507072529 | 11 | 0.0 | 0.0 | 0.00 | 0.00 | 0.00 | 81 | 1023.5 | |
| 20260507071527 | 11 | 0.0 | 0.0 | 0.00 | 0.00 | 0.00 | 81 | 1023.4 | |
| 20260507070525 | 11 | 0.0 | 0.0 | 0.00 | 0.00 | 0.00 | 80 | 1023.3 | |
| 20260507065605 | 11 | 0.0 | 0.0 | 0.00 | 0.00 | 0.00 | 80 | 1023.3 | |
| 20260507064523 | 11 | 0.0 | 0.0 | 0.00 | 0.00 | 0.00 | 80 | 1023.3 | |
| 20260507063521 | 11 | 0.0 | 0.0 | 0.00 | 0.00 | 0.00 | 81 | 1023.4 | |
| 20260507062521 | 11 | 0.0 | 0.0 | 0.00 | 0.00 | 0.00 | 81 | 1023.3 | |
| 20260507061519 | 11 | 0.0 | 0.0 | 0.00 | 0.00 | 0.00 | 82 | 1023.4 | |
| 20260507060518 | 11 | 0.0 | 1.6 | 0.00 | 0.00 | 0.00 | 83 | 1023.4 | |
| 20260507055537 | 11 | 0.0 | 0.0 | 0.00 | 0.00 | 0.00 | 84 | 1023.4 | |
| 20260507054515 | 11 | 0.0 | 1.6 | 0.00 | 0.00 | 0.00 | 84 | 1023.3 | |
| 20260507053614 | 11 | 0.0 | 0.0 | 0.00 | 0.00 | 0.00 | 84 | 1023.2 | |
| 20260507052613 | 12 | 0.0 | 0.0 | 0.00 | 0.00 | 0.00 | 83 | 1023.3 | |
| 20260507051612 | 12 | 0.0 | 0.0 | 0.00 | 0.00 | 0.00 | 82 | 1023.2 | |
| 20260507050610 | 12 | 0.0 | 0.0 | 0.00 | 0.00 | 0.00 | 81 | 1023.3 | |
| 20260507045609 | 12 | 0.0 | 0.0 | 0.00 | 0.00 | 0.00 | 81 | 1023.3 | |
| 20260507044648 | 12 | 0.0 | 3.2 | 0.00 | 0.00 | 0.00 | 81 | 1023.3 | |
| 20260507043606 | 13 | 242 | 0.0 | 3.2 | 0.00 | 0.00 | 0.00 | 80 | 1023.1 |
| 20260507042625 | 13 | 0.0 | 0.0 | 0.00 | 0.00 | 0.00 | 80 | 1023.0 | |
| 20260507041604 | 13 | 0.0 | 1.6 | 0.00 | 0.00 | 0.00 | 80 | 1023.1 | |
| 20260507040602 | 13 | 0.0 | 0.0 | 0.00 | 0.00 | 0.00 | 79 | 1022.8 | |
| 20260507035601 | 13 | 0.0 | 1.6 | 0.00 | 0.00 | 0.00 | 79 | 1022.7 | |
| 20260507034559 | 13 | 0.0 | 3.2 | 0.00 | 0.00 | 0.00 | 78 | 1022.7 | |
| 20260507033558 | 13 | 0.0 | 0.0 | 0.00 | 0.00 | 0.00 | 78 | 1022.5 | |
| 20260507032557 | 13 | 0.0 | 3.2 | 0.00 | 0.00 | 0.00 | 78 | 1022.4 | |
| 20260507031556 | 14 | 0.0 | 3.2 | 0.00 | 0.00 | 0.00 | 77 | 1022.2 | |
| 20260507030554 | 14 | 212 | 0.0 | 3.2 | 0.00 | 0.00 | 0.00 | 77 | 1022.2 |
| 20260507025553 | 15 | 0.0 | 4.8 | 0.00 | 0.00 | 0.00 | 76 | 1022.0 | |
| 20260507024551 | 15 | 0.0 | 0.0 | 0.00 | 0.00 | 0.00 | 75 | 1022.0 | |
| 20260507023550 | 15 | 0.0 | 0.0 | 0.00 | 0.00 | 0.00 | 74 | 1021.8 | |
| 20260507022548 | 16 | 155 | 0.0 | 1.6 | 0.00 | 0.00 | 0.00 | 73 | 1021.9 |
| 20260507021546 | 16 | 0.0 | 3.2 | 0.00 | 0.00 | 0.00 | 71 | 1021.9 | |
| 20260507020625 | 17 | 293 | 0.0 | 3.2 | 0.00 | 0.00 | 0.00 | 70 | 1021.7 |
| 20260507015543 | 17 | 0.0 | 3.2 | 0.00 | 0.00 | 0.00 | 69 | 1021.9 | |
| 20260507014542 | 17 | 0.0 | 1.6 | 0.00 | 0.00 | 0.00 | 69 | 1021.8 | |
| 20260507013540 | 17 | 0.0 | 1.6 | 0.00 | 0.00 | 0.00 | 68 | 1022.0 | |
| 20260507012538 | 18 | 0.0 | 3.2 | 0.00 | 0.00 | 0.00 | 67 | 1022.1 | |
| 20260507011558 | 18 | 269 | 0.0 | 3.2 | 0.00 | 0.00 | 0.00 | 65 | 1022.0 |
| 20260507010536 | 19 | 0.0 | 1.6 | 0.00 | 0.00 | 0.00 | 63 | 1022.0 | |
| 20260507005614 | 20 | 0.0 | 1.6 | 0.00 | 0.00 | 0.00 | 61 | 1021.9 | |
| 20260507004533 | 21 | 0.0 | 1.6 | 0.00 | 0.00 | 0.00 | 58 | 1022.0 | |
| 20260507003532 | 21 | 178 | 1.6 | 4.8 | 0.00 | 0.00 | 0.00 | 59 | 1021.9 |
| 20260507002550 | 21 | 44 | 0.0 | 1.6 | 0.00 | 0.00 | 0.00 | 59 | 1021.8 |
| 20260507001529 | 20 | 158 | 0.0 | 3.2 | 0.00 | 0.00 | 0.00 | 63 | 1021.9 |
| 20260507000528 | 20 | 0.0 | 1.6 | 0.00 | 0.00 | 0.00 | 63 | 1022.0 | |
| 20260506235527 | 21 | 0.0 | 3.2 | 0.00 | 0.00 | 0.00 | 63 | 1021.7 | |
| 20260506234525 | 20 | 0.0 | 3.2 | 0.00 | 0.00 | 0.00 | 63 | 1021.7 | |
| 20260506233524 | 21 | 0.0 | 1.6 | 0.00 | 0.00 | 0.00 | 62 | 1021.7 | |
| 20260506232522 | 21 | 0.0 | 0.0 | 0.00 | 0.00 | 0.00 | 61 | 1021.7 | |
| 20260506231520 | 21 | 132 | 1.6 | 3.2 | 0.00 | 0.00 | 0.00 | 60 | 1021.7 |
| 20260506230539 | 20 | 134 | 1.6 | 3.2 | 0.00 | 0.00 | 0.00 | 61 | 1021.9 |
| 20260506225518 | 20 | 162 | 1.6 | 6.4 | 0.00 | 0.00 | 0.00 | 61 | 1021.9 |
| 20260506224516 | 19 | 0.0 | 3.2 | 0.00 | 0.00 | 0.00 | 63 | 1022.1 | |
| 20260506223635 | 20 | 0.0 | 0.0 | 0.00 | 0.00 | 0.00 | 64 | 1022.2 | |
| 20260506222614 | 20 | 29 | 0.0 | 3.2 | 0.00 | 0.00 | 0.00 | 64 | 1022.2 |
| 20260506221632 | 20 | 110 | 0.0 | 1.6 | 0.00 | 0.00 | 0.00 | 63 | 1022.2 |
| 20260506220610 | -17 | 0.0 | 0.0 | 0.00 | 0.00 | 0.00 | 1022.3 | ||
| 20260506215609 | 20 | 0.0 | 3.2 | 0.00 | 0.00 | 0.00 | 59 | 1022.3 | |
| 20260506214608 | 20 | 122 | 0.0 | 3.2 | 0.00 | 0.00 | 0.00 | 62 | 1022.2 |
| 20260506213606 | 19 | 56 | 1.6 | 3.2 | 0.00 | 0.00 | 0.00 | 63 | 1022.3 |
| 20260506212605 | 19 | 113 | 3.2 | 6.4 | 0.00 | 0.00 | 0.00 | 63 | 1022.4 |
| 20260506211604 | -17 | 0.0 | 0.0 | 0.00 | 0.00 | 0.00 | 1022.5 | ||
| 20260506210603 | -17 | 0.0 | 0.0 | 0.00 | 0.00 | 0.00 | 1022.6 | ||
| 20260506205642 | -17 | 0.0 | 0.0 | 0.00 | 0.00 | 0.00 | 1022.6 | ||
| 20260506204620 | 20 | 138 | 3.2 | 3.2 | 0.00 | 0.00 | 0.00 | 64 | 1022.6 |
| 20260506203559 | 18 | 135 | 4.8 | 4.8 | 0.00 | 0.00 | 0.00 | 67 | 1022.6 |
| 20260506202557 | 18 | 137 | 1.6 | 4.8 | 0.00 | 0.00 | 0.00 | 67 | 1022.6 |
| 20260506201616 | 18 | 0.0 | 3.2 | 0.00 | 0.00 | 0.00 | 70 | 1022.6 | |
| 20260506200554 | 17 | 0.0 | 0.0 | 0.00 | 0.00 | 0.00 | 71 | 1022.7 | |
| 20260506195553 | 16 | 0.0 | 1.6 | 0.00 | 0.00 | 0.00 | 73 | 1022.8 | |
| 20260506194611 | 16 | 199 | 1.6 | 3.2 | 0.00 | 0.00 | 0.00 | 75 | 1022.9 |
| 20260506193550 | 16 | 0.0 | 1.6 | 0.00 | 0.00 | 0.00 | 76 | 1023.0 | |
| 20260506192629 | 16 | 215 | 0.0 | 3.2 | 0.00 | 0.00 | 0.00 | 76 | 1023.1 |
| 20260506191547 | 16 | 45 | 0.0 | 3.2 | 0.00 | 0.00 | 0.00 | 75 | 1023.0 |
| 20260506190545 | 16 | 150 | 0.0 | 3.2 | 0.00 | 0.00 | 0.00 | 74 | 1022.9 |
| 20260506185544 | 16 | 159 | 0.0 | 3.2 | 0.00 | 0.00 | 0.00 | 76 | 1022.9 |
| 20260506184543 | 15 | 305 | 1.6 | 3.2 | 0.00 | 0.00 | 0.00 | 77 | 1022.9 |
| 20260506183541 | 15 | 0.0 | 1.6 | 0.00 | 0.00 | 0.00 | 77 | 1022.8 | |
| 20260506182540 | 15 | 176 | 0.0 | 4.8 | 0.00 | 0.00 | 0.00 | 80 | 1022.6 |
| 20260506181539 | 15 | 334 | 0.0 | 3.2 | 0.00 | 0.00 | 0.00 | 82 | 1022.9 |
| 20260506180537 | 14 | 0.0 | 1.6 | 0.00 | 0.00 | 0.00 | 83 | 1022.8 | |
| 20260506175536 | 14 | 0.0 | 0.0 | 0.00 | 0.00 | 0.00 | 83 | 1022.8 | |
| 20260506174535 | 14 | 0.0 | 0.0 | 0.00 | 0.00 | 0.00 | 83 | 1023.0 | |
| 20260506173534 | 14 | 0.0 | 0.0 | 0.00 | 0.00 | 0.00 | 84 | 1022.8 | |
| 20260506172553 | 13 | 0.0 | 3.2 | 0.00 | 0.00 | 0.00 | 84 | 1022.8 | |
| 20260506171531 | 13 | 0.0 | 3.2 | 0.00 | 0.00 | 0.00 | 85 | 1022.5 | |
| 20260506170530 | 13 | 312 | 3.2 | 6.4 | 0.00 | 0.00 | 0.00 | 85 | 1022.6 |
| 20260506165529 | 13 | 94 | 3.2 | 6.4 | 0.00 | 0.00 | 0.00 | 85 | 1022.6 |
| 20260506164527 | 13 | 355 | 3.2 | 6.4 | 0.00 | 0.00 | 0.00 | 85 | 1022.7 |
| 20260506163526 | 13 | 152 | 4.8 | 9.7 | 0.00 | 0.00 | 0.00 | 84 | 1022.6 |
| 20260506162525 | 13 | 219 | 0.0 | 4.8 | 0.00 | 0.00 | 0.00 | 83 | 1022.7 |
| 20260506161524 | 13 | 282 | 4.8 | 8.0 | 0.00 | 0.00 | 0.00 | 84 | 1022.6 |
| 20260506160623 | 13 | 101 | 3.2 | 6.4 | 0.00 | 0.00 | 0.00 | 85 | 1022.3 |
| 20260506155521 | 13 | 88 | 3.2 | 8.0 | 0.00 | 0.00 | 0.00 | 85 | 1022.1 |
| 20260506154520 | 13 | 317 | 4.8 | 9.7 | 0.00 | 0.00 | 0.00 | 85 | 1022.2 |
| 20260506153518 | 13 | 15 | 3.2 | 6.4 | 0.00 | 0.00 | 0.00 | 86 | 1021.9 |
| 20260506152517 | 12 | 162 | 1.6 | 4.8 | 0.00 | 0.00 | 0.00 | 86 | 1022.2 |
| 20260506151516 | 12 | 240 | 1.6 | 4.8 | 0.00 | 0.00 | 0.00 | 86 | 1022.5 |
| 20260506150635 | 12 | 85 | 1.6 | 4.8 | 0.00 | 0.00 | 0.00 | 87 | 1022.5 |
| 20260506145614 | 12 | 227 | 1.6 | 4.8 | 0.00 | 0.00 | 0.00 | 87 | 1022.5 |
| 20260506144613 | 12 | 81 | 0.0 | 3.2 | 0.00 | 0.00 | 0.00 | 87 | 1022.3 |
| 20260506143611 | 13 | 300 | 3.2 | 6.4 | 0.00 | 0.00 | 0.00 | 86 | 1022.2 |
| 20260506142630 | 13 | 343 | 4.8 | 8.0 | 0.00 | 0.00 | 0.00 | 87 | 1022.1 |
| 20260506141629 | 13 | 284 | 3.2 | 6.4 | 0.00 | 0.00 | 0.00 | 87 | 1021.7 |
| 20260506140608 | 13 | 254 | 3.2 | 6.4 | 0.00 | 0.00 | 0.00 | 88 | 1021.6 |
| 20260506135606 | 12 | 80 | 3.2 | 4.8 | 0.00 | 0.00 | 0.00 | 88 | 1021.5 |
| 20260506134605 | 12 | 106 | 1.6 | 4.8 | 0.00 | 0.00 | 0.00 | 88 | 1021.5 |
| 20260506133604 | 12 | 317 | 3.2 | 6.4 | 0.00 | 0.00 | 0.00 | 88 | 1021.5 |
| 20260506132623 | 12 | 312 | 3.2 | 4.8 | 0.00 | 0.00 | 0.00 | 89 | 1021.4 |
| 20260506131601 | 12 | 336 | 1.6 | 6.4 | 0.00 | 0.00 | 0.00 | 88 | 1021.4 |
| 20260506130600 | 12 | 40 | 1.6 | 8.0 | 0.00 | 0.00 | 0.00 | 88 | 1021.1 |
| 20260506125559 | 12 | 126 | 3.2 | 6.4 | 0.00 | 0.00 | 0.00 | 88 | 1021.1 |
| 20260506124558 | 12 | 330 | 1.6 | 8.0 | 0.00 | 0.00 | 0.00 | 88 | 1021.1 |
| 20260506123616 | 12 | 313 | 3.2 | 8.0 | 0.00 | 0.00 | 0.00 | 88 | 1021.0 |
| 20260506122555 | 12 | 309 | 4.8 | 9.7 | 0.00 | 0.00 | 0.00 | 87 | 1021.0 |
| 20260506121554 | 12 | 273 | 0.0 | 3.2 | 0.00 | 0.00 | 0.00 | 87 | 1021.1 |
| 20260506120613 | 12 | 137 | 1.6 | 6.4 | 0.00 | 0.00 | 0.00 | 87 | 1021.0 |
| 20260506115551 | 13 | 209 | 0.0 | 3.2 | 0.00 | 0.00 | 0.00 | 87 | 1021.0 |
| 20260506114550 | 13 | 138 | 3.2 | 4.8 | 0.00 | 0.00 | 0.00 | 86 | 1020.9 |
| 20260506113548 | 13 | 332 | 1.6 | 6.4 | 0.00 | 0.00 | 0.00 | 86 | 1020.7 |
| 20260506112548 | 13 | 308 | 4.8 | 8.0 | 0.00 | 0.00 | 0.00 | 86 | 1020.7 |
| 20260506111547 | 13 | 0.0 | 3.2 | 0.00 | 0.00 | 0.00 | 86 | 1020.7 | |
| 20260506110545 | 13 | 0.0 | 0.0 | 0.00 | 0.00 | 0.00 | 86 | 1020.4 | |
| 20260506105544 | 13 | 0.0 | 0.0 | 0.00 | 0.00 | 0.00 | 86 | 1020.3 | |
| 20260506104603 | 13 | 0.0 | 0.0 | 0.00 | 0.00 | 0.00 | 86 | 1020.2 | |
| 20260506103541 | 13 | 0.0 | 0.0 | 0.00 | 0.00 | 0.00 | 86 | 1020.0 | |
| 20260506102540 | 13 | 0.0 | 0.0 | 0.00 | 0.00 | 0.00 | 86 | 1019.9 | |
| 20260506101539 | 13 | 0.0 | 0.0 | 0.00 | 0.00 | 0.00 | 85 | 1019.9 | |
| 20260506100538 | 13 | 0.0 | 0.0 | 0.00 | 0.00 | 0.00 | 85 | 1019.8 |